Time,TemperatureF,DewpointF,PressureIn,WindDirection,WindDirectionDegrees,WindSpeedMPH,WindSpeedGustMPH,Humidity,HourlyPrecipIn,Conditions,Clouds,dailyrainin,SoftwareType,DateUTC
2013-02-24 00:00:00,37.4,27.8,31.87,NNE,32,0.0,0.0,68,0.00,NA,NA,-99.99,wxupload 3.4,2013-02-24 05:00:00,
2013-02-24 00:03:00,37.4,27.8,31.87,NNE,32,0.0,0.0,68,0.00,NA,NA,-99.99,wxupload 3.4,2013-02-24 05:03:00,
2013-02-24 00:06:00,37.2,28.0,31.87,NNE,31,0.0,0.0,69,0.00,NA,NA,-99.99,wxupload 3.4,2013-02-24 05:06:00,
2013-02-24 00:12:00,37.2,28.0,31.87,NNE,27,0.0,0.0,69,0.00,NA,NA,-99.99,wxupload 3.4,2013-02-24 05:12:00,
2013-02-24 00:18:00,37.0,27.8,31.87,WSW,242,0.0,0.0,69,0.00,NA,NA,-99.99,wxupload 3.4,2013-02-24 05:18:00,
2013-02-24 00:25:00,37.0,27.8,31.87,WSW,242,0.0,0.0,69,0.00,NA,NA,-99.99,wxupload 3.4,2013-02-24 05:25:00,
2013-02-24 00:30:00,37.0,27.8,31.87,North,0,0.0,2.0,69,0.00,NA,NA,-99.99,wxupload 3.4,2013-02-24 05:30:00,
2013-02-24 00:36:00,37.2,28.3,31.90,NE,34,0.0,4.0,70,0.00,NA,NA,-99.99,wxupload 3.4,2013-02-24 05:36:00,
2013-02-24 00:42:00,37.4,28.5,31.90,NNE,24,0.0,0.0,70,0.00,NA,NA,-99.99,wxupload 3.4,2013-02-24 05:42:00,
2013-02-24 00:48:00,37.4,28.5,31.90,WNW,300,0.0,0.0,70,0.00,NA,NA,-99.99,wxupload 3.4,2013-02-24 05:48:00,
2013-02-24 00:55:00,37.4,28.9,31.90,North,0,0.0,0.0,71,0.00,NA,NA,-99.99,wxupload 3.4,2013-02-24 05:55:00,
2013-02-24 01:00:00,37.4,28.9,31.90,North,0,0.0,0.0,71,0.00,NA,NA,-99.99,wxupload 3.4,2013-02-24 06:00:00,
2013-02-24 01:06:00,37.4,28.9,31.90,North,0,0.0,0.0,71,0.00,NA,NA,-99.99,wxupload 3.4,2013-02-24 06:06:00,
2013-02-24 01:12:00,37.6,29.0,31.90,North,0,0.0,0.0,71,0.00,NA,NA,-99.99,wxupload 3.4,2013-02-24 06:12:00,
2013-02-24 01:18:00,37.6,29.4,31.90,North,0,0.0,0.0,72,0.00,NA,NA,-99.99,wxupload 3.4,2013-02-24 06:18:00,
2013-02-24 01:25:00,37.4,29.2,31.90,North,0,0.0,0.0,72,0.00,NA,NA,-99.99,wxupload 3.4,2013-02-24 06:25:00,
2013-02-24 01:30:00,37.6,29.7,31.90,NE,37,0.0,0.0,73,0.00,NA,NA,-99.99,wxupload 3.4,2013-02-24 06:30:00,
2013-02-24 01:36:00,37.6,30.1,31.90,NNE,13,0.0,0.0,74,0.00,NA,NA,-99.99,wxupload 3.4,2013-02-24 06:36:00,
2013-02-24 01:42:00,37.6,30.1,31.90,East,101,0.0,0.0,74,0.00,NA,NA,-99.99,wxupload 3.4,2013-02-24 06:42:00,
2013-02-24 01:48:00,37.6,30.1,31.90,SE,139,3.0,5.0,74,0.00,NA,NA,-99.99,wxupload 3.4,2013-02-24 06:48:00,
2013-02-24 01:54:00,37.6,29.7,31.90,SE,133,0.0,0.0,73,0.00,NA,NA,-99.99,wxupload 3.4,2013-02-24 06:54:00,
2013-02-24 02:00:00,37.6,30.1,31.90,SE,133,0.0,0.0,74,0.00,NA,NA,-99.99,wxupload 3.4,2013-02-24 07:00:00,
2013-02-24 02:06:00,37.6,29.7,31.90,SE,133,0.0,0.0,73,0.00,NA,NA,-99.99,wxupload 3.4,2013-02-24 07:06:00,
2013-02-24 02:12:00,37.4,29.6,31.90,South,185,0.0,3.0,73,0.00,NA,NA,-99.99,wxupload 3.4,2013-02-24 07:12:00,
2013-02-24 02:18:00,37.0,29.2,31.90,South,183,0.0,3.0,73,0.00,NA,NA,-99.99,wxupload 3.4,2013-02-24 07:18:00,
2013-02-24 02:24:00,36.9,29.0,31.90,South,183,0.0,0.0,73,0.00,NA,NA,-99.99,wxupload 3.4,2013-02-24 07:24:00,
2013-02-24 02:30:00,36.9,29.0,31.90,South,172,0.0,0.0,73,0.00,NA,NA,-99.99,wxupload 3.4,2013-02-24 07:30:00,
2013-02-24 02:36:00,36.9,29.0,31.87,South,172,0.0,0.0,73,0.00,NA,NA,-99.99,wxupload 3.4,2013-02-24 07:36:00,
2013-02-24 02:42:00,36.7,28.9,31.87,South,172,0.0,0.0,73,0.00,NA,NA,-99.99,wxupload 3.4,2013-02-24 07:42:00,
2013-02-24 02:48:00,36.3,28.5,31.87,South,172,0.0,0.0,73,0.00,NA,NA,-99.99,wxupload 3.4,2013-02-24 07:48:00,
2013-02-24 02:54:00,36.1,28.3,31.87,South,172,0.0,0.0,73,0.00,NA,NA,-99.99,wxupload 3.4,2013-02-24 07:54:00,
2013-02-24 03:00:00,36.1,28.3,31.87,South,172,0.0,0.0,73,0.00,NA,NA,-99.99,wxupload 3.4,2013-02-24 08:00:00,
2013-02-24 03:06:00,36.1,28.3,31.87,SE,125,0.0,0.0,73,0.00,NA,NA,-99.99,wxupload 3.4,2013-02-24 08:06:00,
2013-02-24 03:12:00,36.0,28.2,31.87,SE,125,0.0,0.0,73,0.00,NA,NA,-99.99,wxupload 3.4,2013-02-24 08:12:00,
2013-02-24 03:18:00,36.1,28.3,31.87,SE,125,0.0,0.0,73,0.00,NA,NA,-99.99,wxupload 3.4,2013-02-24 08:18:00,
2013-02-24 03:24:00,36.1,28.3,31.87,SE,125,0.0,0.0,73,0.00,NA,NA,-99.99,wxupload 3.4,2013-02-24 08:24:00,
2013-02-24 03:30:00,36.1,28.3,31.87,SE,125,0.0,0.0,73,0.00,NA,NA,-99.99,wxupload 3.4,2013-02-24 08:30:00,
2013-02-24 03:36:00,36.0,28.2,31.87,SE,125,0.0,0.0,73,0.00,NA,NA,-99.99,wxupload 3.4,2013-02-24 08:36:00,
2013-02-24 03:42:00,36.0,28.2,31.87,SE,125,0.0,0.0,73,0.00,NA,NA,-99.99,wxupload 3.4,2013-02-24 08:42:00,
2013-02-24 03:48:00,36.0,28.2,31.87,SE,125,0.0,0.0,73,0.00,NA,NA,-99.99,wxupload 3.4,2013-02-24 08:48:00,
2013-02-24 03:54:00,35.8,28.0,31.87,SE,125,0.0,0.0,73,0.00,NA,NA,-99.99,wxupload 3.4,2013-02-24 08:54:00,
2013-02-24 04:00:00,35.6,27.8,31.87,SE,125,0.0,0.0,73,0.00,NA,NA,-99.99,wxupload 3.4,2013-02-24 09:00:00,
2013-02-24 04:07:00,35.6,27.8,31.87,SE,125,0.0,0.0,73,0.00,NA,NA,-99.99,wxupload 3.4,2013-02-24 09:07:00,
2013-02-24 04:12:00,35.4,27.6,31.87,SE,125,0.0,0.0,73,0.00,NA,NA,-99.99,wxupload 3.4,2013-02-24 09:12:00,
2013-02-24 04:18:00,35.4,27.6,31.87,SE,125,0.0,0.0,73,0.00,NA,NA,-99.99,wxupload 3.4,2013-02-24 09:18:00,
2013-02-24 04:24:00,35.6,27.8,31.87,SE,125,0.0,0.0,73,0.00,NA,NA,-99.99,wxupload 3.4,2013-02-24 09:24:00,
2013-02-24 04:30:00,35.8,28.3,31.87,SE,125,0.0,0.0,74,0.00,NA,NA,-99.99,wxupload 3.4,2013-02-24 09:30:00,
2013-02-24 04:37:00,35.8,28.0,31.87,SE,125,0.0,0.0,73,0.00,NA,NA,-99.99,wxupload 3.4,2013-02-24 09:37:00,
2013-02-24 04:42:00,36.0,28.5,31.87,ESE,116,0.0,0.0,74,0.00,NA,NA,-99.99,wxupload 3.4,2013-02-24 09:42:00,
2013-02-24 04:48:00,36.1,28.7,31.90,ESE,116,0.0,0.0,74,0.00,NA,NA,-99.99,wxupload 3.4,2013-02-24 09:48:00,
2013-02-24 04:54:00,36.1,28.3,31.90,SE,133,0.0,0.0,73,0.00,NA,NA,-99.99,wxupload 3.4,2013-02-24 09:54:00,
2013-02-24 05:00:00,36.1,28.7,31.90,ESE,104,0.0,0.0,74,0.00,NA,NA,-99.99,wxupload 3.4,2013-02-24 10:00:00,
2013-02-24 05:07:00,36.1,28.7,31.90,ESE,104,0.0,0.0,74,0.00,NA,NA,-99.99,wxupload 3.4,2013-02-24 10:07:00,
2013-02-24 05:12:00,36.1,28.7,31.90,ESE,117,0.0,0.0,74,0.00,NA,NA,-99.99,wxupload 3.4,2013-02-24 10:12:00,
2013-02-24 05:18:00,36.0,28.5,31.87,SE,129,0.0,0.0,74,0.00,NA,NA,-99.99,wxupload 3.4,2013-02-24 10:18:00,
2013-02-24 05:24:00,35.8,28.3,31.87,SE,129,0.0,0.0,74,0.00,NA,NA,-99.99,wxupload 3.4,2013-02-24 10:24:00,
2013-02-24 05:30:00,35.4,28.0,31.87,SE,129,0.0,0.0,74,0.00,NA,NA,-99.99,wxupload 3.4,2013-02-24 10:30:00,
2013-02-24 05:37:00,35.1,27.6,31.87,SE,129,0.0,0.0,74,0.00,NA,NA,-99.99,wxupload 3.4,2013-02-24 10:37:00,
2013-02-24 05:42:00,34.9,27.4,31.87,SE,129,0.0,0.0,74,0.00,NA,NA,-99.99,wxupload 3.4,2013-02-24 10:42:00,
2013-02-24 05:48:00,34.5,26.8,31.87,SE,129,0.0,0.0,73,0.00,NA,NA,-99.99,wxupload 3.4,2013-02-24 10:48:00,
2013-02-24 05:54:00,34.3,26.6,31.87,SE,129,0.0,0.0,73,0.00,NA,NA,-99.99,wxupload 3.4,2013-02-24 10:54:00,
2013-02-24 06:00:00,34.2,26.4,31.87,SE,129,0.0,0.0,73,0.00,NA,NA,-99.99,wxupload 3.4,2013-02-24 11:00:00,
2013-02-24 06:07:00,33.8,26.1,31.90,SE,129,0.0,0.0,73,0.00,NA,NA,-99.99,wxupload 3.4,2013-02-24 11:07:00,
2013-02-24 06:12:00,33.6,25.9,31.90,SE,129,0.0,0.0,73,0.00,NA,NA,-99.99,wxupload 3.4,2013-02-24 11:12:00,
2013-02-24 06:18:00,33.3,25.9,31.90,SE,129,0.0,0.0,74,0.00,NA,NA,-99.99,wxupload 3.4,2013-02-24 11:18:00,
2013-02-24 06:24:00,33.4,26.0,31.90,SE,129,0.0,0.0,74,0.00,NA,NA,-99.99,wxupload 3.4,2013-02-24 11:24:00,
2013-02-24 06:30:00,33.8,26.4,31.90,NNE,33,0.0,0.0,74,0.00,NA,NA,-99.99,wxupload 3.4,2013-02-24 11:30:00,
2013-02-24 06:37:00,34.0,26.6,31.90,NNE,33,0.0,0.0,74,0.00,NA,NA,-99.99,wxupload 3.4,2013-02-24 11:37:00,
2013-02-24 06:42:00,33.6,26.2,31.90,NNE,33,0.0,0.0,74,0.00,NA,NA,-99.99,wxupload 3.4,2013-02-24 11:42:00,
2013-02-24 06:48:00,33.8,26.4,31.90,NNE,33,0.0,0.0,74,0.00,NA,NA,-99.99,wxupload 3.4,2013-02-24 11:48:00,
2013-02-24 06:54:00,33.6,26.2,31.90,NNE,33,0.0,0.0,74,0.00,NA,NA,-99.99,wxupload 3.4,2013-02-24 11:54:00,
2013-02-24 07:00:00,33.6,26.5,31.90,NE,47,0.0,0.0,75,0.00,NA,NA,-99.99,wxupload 3.4,2013-02-24 12:00:00,
2013-02-24 07:07:00,34.0,27.2,31.90,NE,47,0.0,0.0,76,0.00,NA,NA,-99.99,wxupload 3.4,2013-02-24 12:07:00,
2013-02-24 07:12:00,34.0,27.2,31.90,NE,40,0.0,0.0,76,0.00,NA,NA,-99.99,wxupload 3.4,2013-02-24 12:12:00,
2013-02-24 07:18:00,34.0,27.2,31.90,NE,40,0.0,0.0,76,0.00,NA,NA,-99.99,wxupload 3.4,2013-02-24 12:18:00,
2013-02-24 07:24:00,34.0,27.2,31.90,NE,40,0.0,3.0,76,0.00,NA,NA,-99.99,wxupload 3.4,2013-02-24 12:24:00,
2013-02-24 07:30:00,34.0,26.9,31.90,NE,36,0.0,0.0,75,0.00,NA,NA,-99.99,wxupload 3.4,2013-02-24 12:30:00,
2013-02-24 07:37:00,34.2,27.4,31.90,NE,39,0.0,0.0,76,0.00,NA,NA,-99.99,wxupload 3.4,2013-02-24 12:37:00,
2013-02-24 07:42:00,34.7,27.9,31.90,NNW,342,0.0,0.0,76,0.00,NA,NA,-99.99,wxupload 3.4,2013-02-24 12:42:00,
2013-02-24 07:48:00,34.9,28.1,31.90,WNW,297,0.0,0.0,76,0.00,NA,NA,-99.99,wxupload 3.4,2013-02-24 12:48:00,
2013-02-24 07:54:00,35.4,28.3,31.90,NNW,344,0.0,0.0,75,0.00,NA,NA,-99.99,wxupload 3.4,2013-02-24 12:54:00,
2013-02-24 08:00:00,35.6,28.1,31.90,NNE,30,0.0,0.0,74,0.00,NA,NA,-99.99,wxupload 3.4,2013-02-24 13:00:00,
2013-02-24 08:06:00,36.1,28.0,31.92,NW,304,0.0,0.0,72,0.00,NA,NA,-99.99,wxupload 3.4,2013-02-24 13:06:00,
2013-02-24 08:12:00,36.5,26.9,31.92,NNW,330,0.0,0.0,68,0.00,NA,NA,-99.99,wxupload 3.4,2013-02-24 13:12:00,
2013-02-24 08:19:00,37.0,26.0,31.90,NNW,330,0.0,4.0,64,0.00,NA,NA,-99.99,wxupload 3.4,2013-02-24 13:19:00,
2013-02-24 08:24:00,37.2,23.0,31.90,NNW,330,0.0,3.0,56,0.00,NA,NA,-99.99,wxupload 3.4,2013-02-24 13:24:00,
2013-02-24 08:30:00,37.4,22.3,31.90,North,353,0.0,0.0,54,0.00,NA,NA,-99.99,wxupload 3.4,2013-02-24 13:30:00,
2013-02-24 08:36:00,37.4,19.5,31.92,North,5,3.0,5.0,48,0.00,NA,NA,-99.99,wxupload 3.4,2013-02-24 13:36:00,
2013-02-24 08:42:00,38.1,18.1,31.92,NE,36,0.0,2.0,44,0.00,NA,NA,-99.99,wxupload 3.4,2013-02-24 13:42:00,
2013-02-24 08:49:00,38.5,17.3,31.92,NNW,340,3.0,5.0,42,0.00,NA,NA,-99.99,wxupload 3.4,2013-02-24 13:49:00,
2013-02-24 08:54:00,38.3,16.6,31.92,ENE,65,4.0,6.0,41,0.00,NA,NA,-99.99,wxupload 3.4,2013-02-24 13:54:00,
2013-02-24 09:00:00,38.5,16.8,31.92,North,357,3.0,3.0,41,0.00,NA,NA,-99.99,wxupload 3.4,2013-02-24 14:00:00,
2013-02-24 09:06:00,38.8,16.5,31.92,NNW,339,4.0,4.0,40,0.00,NA,NA,-99.99,wxupload 3.4,2013-02-24 14:06:00,
2013-02-24 09:12:00,39.4,15.8,31.92,NE,42,4.0,5.0,38,0.00,NA,NA,-99.99,wxupload 3.4,2013-02-24 14:12:00,
2013-02-24 09:19:00,40.3,16.6,31.92,NW,323,5.0,7.0,38,0.00,NA,NA,-99.99,wxupload 3.4,2013-02-24 14:19:00,
2013-02-24 09:24:00,40.6,15.1,31.92,NE,56,4.0,6.0,35,0.00,NA,NA,-99.99,wxupload 3.4,2013-02-24 14:24:00,
2013-02-24 09:30:00,41.4,15.7,31.92,North,0,4.0,8.0,35,0.00,NA,NA,-99.99,wxupload 3.4,2013-02-24 14:30:00,
2013-02-24 09:36:00,41.5,15.2,31.95,NW,325,0.0,3.0,34,0.00,NA,NA,-99.99,wxupload 3.4,2013-02-24 14:36:00,
2013-02-24 09:42:00,42.4,16.0,31.95,North,1,3.0,5.0,34,0.00,NA,NA,-99.99,wxupload 3.4,2013-02-24 14:42:00,
2013-02-24 09:49:00,43.5,15.6,31.95,North,10,4.0,5.0,32,0.00,NA,NA,-99.99,wxupload 3.4,2013-02-24 14:49:00,
2013-02-24 09:54:00,43.7,15.0,31.95,WNW,283,4.0,7.0,31,0.00,NA,NA,-99.99,wxupload 3.4,2013-02-24 14:54:00,
2013-02-24 10:00:00,43.9,14.4,31.95,NNW,341,3.0,4.0,30,0.00,NA,NA,-99.99,wxupload 3.4,2013-02-24 15:00:00,
2013-02-24 10:06:00,44.2,14.7,31.95,NNE,27,3.0,4.0,30,0.00,NA,NA,-99.99,wxupload 3.4,2013-02-24 15:06:00,
2013-02-24 10:12:00,44.1,14.6,31.95,North,0,0.0,0.0,30,0.00,NA,NA,-99.99,wxupload 3.4,2013-02-24 15:12:00,
2013-02-24 10:19:00,43.5,13.3,31.95,ENE,69,4.0,5.0,29,0.00,NA,NA,-99.99,wxupload 3.4,2013-02-24 15:19:00,
2013-02-24 10:24:00,43.5,14.1,31.95,WNW,297,0.0,0.0,30,0.00,NA,NA,-99.99,wxupload 3.4,2013-02-24 15:24:00,
2013-02-24 10:30:00,43.5,14.1,31.95,North,0,0.0,0.0,30,0.00,NA,NA,-99.99,wxupload 3.4,2013-02-24 15:30:00,
2013-02-24 10:36:00,43.3,13.1,31.95,NNW,345,0.0,3.0,29,0.00,NA,NA,-99.99,wxupload 3.4,2013-02-24 15:36:00,
2013-02-24 10:42:00,43.3,13.1,31.95,NE,42,0.0,4.0,29,0.00,NA,NA,-99.99,wxupload 3.4,2013-02-24 15:42:00,
2013-02-24 10:49:00,43.7,13.5,31.95,WNW,287,3.0,6.0,29,0.00,NA,NA,-99.99,wxupload 3.4,2013-02-24 15:49:00,
2013-02-24 10:54:00,44.4,14.1,31.95,NW,325,0.0,2.0,29,0.00,NA,NA,-99.99,wxupload 3.4,2013-02-24 15:54:00,
2013-02-24 11:01:00,44.2,13.9,31.95,NNW,327,2.0,3.0,29,0.00,NA,NA,-99.99,wxupload 3.4,2013-02-24 16:01:00,
2013-02-24 11:06:00,44.1,13.0,31.95,NE,37,0.0,0.0,28,0.00,NA,NA,-99.99,wxupload 3.4,2013-02-24 16:06:00,
2013-02-24 11:12:00,44.1,13.8,31.95,South,174,3.0,4.0,29,0.00,NA,NA,-99.99,wxupload 3.4,2013-02-24 16:12:00,
2013-02-24 11:18:00,44.4,14.1,31.95,South,182,0.0,0.0,29,0.00,NA,NA,-99.99,wxupload 3.4,2013-02-24 16:18:00,
2013-02-24 11:24:00,44.6,13.5,31.95,West,261,5.0,9.0,28,0.00,NA,NA,-99.99,wxupload 3.4,2013-02-24 16:24:00,
2013-02-24 11:31:00,44.1,13.8,31.95,NW,321,4.0,9.0,29,0.00,NA,NA,-99.99,wxupload 3.4,2013-02-24 16:31:00,
2013-02-24 11:36:00,45.0,13.8,31.95,NE,54,3.0,6.0,28,0.00,NA,NA,-99.99,wxupload 3.4,2013-02-24 16:36:00,
2013-02-24 11:42:00,44.8,13.6,31.95,North,0,4.0,8.0,28,0.00,NA,NA,-99.99,wxupload 3.4,2013-02-24 16:42:00,
2013-02-24 11:48:00,44.1,13.0,31.95,NNW,328,5.0,5.0,28,0.00,NA,NA,-99.99,wxupload 3.4,2013-02-24 16:48:00,
2013-02-24 11:54:00,43.9,12.8,31.95,NNW,345,3.0,7.0,28,0.00,NA,NA,-99.99,wxupload 3.4,2013-02-24 16:54:00,
2013-02-24 12:01:00,44.1,13.0,31.95,North,353,4.0,5.0,28,0.00,NA,NA,-99.99,wxupload 3.4,2013-02-24 17:01:00,
2013-02-24 12:06:00,45.3,14.1,31.92,NNW,338,4.0,5.0,28,0.00,NA,NA,-99.99,wxupload 3.4,2013-02-24 17:06:00,
2013-02-24 12:12:00,46.6,14.4,31.92,NNE,33,0.0,0.0,27,0.00,NA,NA,-99.99,wxupload 3.4,2013-02-24 17:12:00,
2013-02-24 12:18:00,47.5,15.1,31.92,NNW,335,2.0,4.0,27,0.00,NA,NA,-99.99,wxupload 3.4,2013-02-24 17:18:00,
2013-02-24 12:24:00,47.5,15.1,31.92,North,2,4.0,6.0,27,0.00,NA,NA,-99.99,wxupload 3.4,2013-02-24 17:24:00,
2013-02-24 12:31:00,46.9,14.7,31.92,North,6,0.0,4.0,27,0.00,NA,NA,-99.99,wxupload 3.4,2013-02-24 17:31:00,
2013-02-24 12:36:00,47.3,15.0,31.92,NNW,335,0.0,4.0,27,0.00,NA,NA,-99.99,wxupload 3.4,2013-02-24 17:36:00,
2013-02-24 12:43:00,47.7,15.3,31.92,NNW,342,4.0,5.0,27,0.00,NA,NA,-99.99,wxupload 3.4,2013-02-24 17:43:00,
2013-02-24 12:48:00,48.2,14.9,31.92,NE,43,0.0,0.0,26,0.00,NA,NA,-99.99,wxupload 3.4,2013-02-24 17:48:00,
2013-02-24 12:54:00,48.0,12.9,31.92,NE,40,5.0,6.0,24,0.00,NA,NA,-99.99,wxupload 3.4,2013-02-24 17:54:00,
2013-02-24 13:01:00,48.6,13.4,31.92,NNW,341,7.0,9.0,24,0.00,NA,NA,-99.99,wxupload 3.4,2013-02-24 18:01:00,
2013-02-24 13:06:00,48.2,13.1,31.92,NNW,339,4.0,7.0,24,0.00,NA,NA,-99.99,wxupload 3.4,2013-02-24 18:06:00,
2013-02-24 13:13:00,49.1,13.8,31.92,North,357,5.0,7.0,24,0.00,NA,NA,-99.99,wxupload 3.4,2013-02-24 18:13:00,
2013-02-24 13:18:00,49.8,14.5,31.92,NNW,345,3.0,4.0,24,0.00,NA,NA,-99.99,wxupload 3.4,2013-02-24 18:18:00,
2013-02-24 13:24:00,50.7,15.2,31.92,NNW,332,3.0,6.0,24,0.00,NA,NA,-99.99,wxupload 3.4,2013-02-24 18:24:00,
2013-02-24 13:30:00,51.1,15.6,31.92,ENE,70,3.0,6.0,24,0.00,NA,NA,-99.99,wxupload 3.4,2013-02-24 18:30:00,
2013-02-24 13:36:00,51.3,15.7,31.92,North,357,0.0,5.0,24,0.00,NA,NA,-99.99,wxupload 3.4,2013-02-24 18:36:00,
2013-02-24 13:43:00,51.1,15.6,31.92,WNW,285,3.0,5.0,24,0.00,NA,NA,-99.99,wxupload 3.4,2013-02-24 18:43:00,
2013-02-24 13:48:00,50.2,14.8,31.92,North,353,4.0,5.0,24,0.00,NA,NA,-99.99,wxupload 3.4,2013-02-24 18:48:00,
2013-02-24 13:55:00,50.5,15.1,31.92,East,81,4.0,8.0,24,0.00,NA,NA,-99.99,wxupload 3.4,2013-02-24 18:55:00,
2013-02-24 14:00:00,50.4,11.9,31.92,NNW,329,4.0,6.0,21,0.00,NA,NA,-99.99,wxupload 3.4,2013-02-24 19:00:00,
2013-02-24 14:06:00,50.0,11.6,31.92,NNW,348,5.0,15.0,21,0.00,NA,NA,-99.99,wxupload 3.4,2013-02-24 19:06:00,
2013-02-24 14:13:00,49.1,10.8,31.92,NNW,332,4.0,5.0,21,0.00,NA,NA,-99.99,wxupload 3.4,2013-02-24 19:13:00,
2013-02-24 14:18:00,49.1,10.8,31.92,NNW,330,0.0,0.0,21,0.00,NA,NA,-99.99,wxupload 3.4,2013-02-24 19:18:00,
2013-02-24 14:25:00,49.1,10.8,31.92,NNW,345,3.0,4.0,21,0.00,NA,NA,-99.99,wxupload 3.4,2013-02-24 19:25:00,
2013-02-24 14:30:00,48.6,10.3,31.92,NNW,331,5.0,5.0,21,0.00,NA,NA,-99.99,wxupload 3.4,2013-02-24 19:30:00,
2013-02-24 14:36:00,48.2,10.0,31.92,NW,326,3.0,5.0,21,0.00,NA,NA,-99.99,wxupload 3.4,2013-02-24 19:36:00,
2013-02-24 14:43:00,47.8,10.8,31.92,NNE,13,4.0,8.0,22,0.00,NA,NA,-99.99,wxupload 3.4,2013-02-24 19:43:00,
2013-02-24 14:48:00,47.7,10.6,31.95,NNW,338,4.0,8.0,22,0.00,NA,NA,-99.99,wxupload 3.4,2013-02-24 19:48:00,
2013-02-24 14:55:00,47.3,10.3,31.95,NNE,18,4.0,11.0,22,0.00,NA,NA,-99.99,wxupload 3.4,2013-02-24 19:55:00,
2013-02-24 15:00:00,46.9,10.0,31.95,NE,52,5.0,8.0,22,0.00,NA,NA,-99.99,wxupload 3.4,2013-02-24 20:00:00,
2013-02-24 15:06:00,46.6,9.7,31.92,NNW,332,4.0,6.0,22,0.00,NA,NA,-99.99,wxupload 3.4,2013-02-24 20:06:00,
2013-02-24 15:12:00,45.9,9.1,31.92,NNW,330,5.0,6.0,22,0.00,NA,NA,-99.99,wxupload 3.4,2013-02-24 20:12:00,
2013-02-24 15:18:00,46.0,12.1,31.95,NNW,343,5.0,6.0,25,0.00,NA,NA,-99.99,wxupload 3.4,2013-02-24 20:18:00,
2013-02-24 15:25:00,46.2,12.3,31.95,North,357,4.0,6.0,25,0.00,NA,NA,-99.99,wxupload 3.4,2013-02-24 20:25:00,
2013-02-24 15:30:00,45.5,11.6,31.95,NW,320,5.0,6.0,25,0.00,NA,NA,-99.99,wxupload 3.4,2013-02-24 20:30:00,
2013-02-24 15:37:00,44.8,11.0,31.98,NNW,327,4.0,9.0,25,0.00,NA,NA,-99.99,wxupload 3.4,2013-02-24 20:37:00,
2013-02-24 15:42:00,44.6,10.9,31.98,North,11,4.0,5.0,25,0.00,NA,NA,-99.99,wxupload 3.4,2013-02-24 20:42:00,
2013-02-24 15:48:00,43.9,10.2,31.98,NE,48,4.0,7.0,25,0.00,NA,NA,-99.99,wxupload 3.4,2013-02-24 20:48:00,
2013-02-24 15:54:00,42.3,9.7,31.98,NNE,19,4.0,8.0,26,0.00,NA,NA,-99.99,wxupload 3.4,2013-02-24 20:54:00,
2013-02-24 16:00:00,41.2,8.8,31.98,NW,319,4.0,6.0,26,0.00,NA,NA,-99.99,wxupload 3.4,2013-02-24 21:00:00,
2013-02-24 16:07:00,40.6,10.0,32.01,NNW,334,0.0,5.0,28,0.00,NA,NA,-99.99,wxupload 3.4,2013-02-24 21:07:00,
2013-02-24 16:12:00,40.3,9.6,32.01,North,353,2.0,5.0,28,0.00,NA,NA,-99.99,wxupload 3.4,2013-02-24 21:12:00,
2013-02-24 16:18:00,39.4,8.9,32.01,NNW,345,2.0,4.0,28,0.00,NA,NA,-99.99,wxupload 3.4,2013-02-24 21:18:00,
2013-02-24 16:24:00,38.7,9.0,32.01,WNW,286,2.0,5.0,29,0.00,NA,NA,-99.99,wxupload 3.4,2013-02-24 21:24:00,
2013-02-24 16:30:00,38.5,8.8,32.01,North,357,0.0,0.0,29,0.00,NA,NA,-99.99,wxupload 3.4,2013-02-24 21:30:00,
2013-02-24 16:37:00,37.9,8.4,32.01,NW,319,4.0,5.0,29,0.00,NA,NA,-99.99,wxupload 3.4,2013-02-24 21:37:00,
2013-02-24 16:42:00,37.4,7.9,32.01,NNW,331,5.0,11.0,29,0.00,NA,NA,-99.99,wxupload 3.4,2013-02-24 21:42:00,
2013-02-24 16:49:00,36.9,8.2,32.04,North,3,5.0,8.0,30,0.00,NA,NA,-99.99,wxupload 3.4,2013-02-24 21:49:00,
2013-02-24 16:54:00,36.7,8.0,32.04,NNE,14,4.0,6.0,30,0.00,NA,NA,-99.99,wxupload 3.4,2013-02-24 21:54:00,
2013-02-24 17:00:00,36.3,7.7,32.04,NNW,339,4.0,6.0,30,0.00,NA,NA,-99.99,wxupload 3.4,2013-02-24 22:00:00,
2013-02-24 17:06:00,36.1,7.5,32.04,North,3,4.0,6.0,30,0.00,NA,NA,-99.99,wxupload 3.4,2013-02-24 22:06:00,
2013-02-24 17:12:00,36.1,7.5,32.04,NNW,331,6.0,6.0,30,0.00,NA,NA,-99.99,wxupload 3.4,2013-02-24 22:12:00,
2013-02-24 17:19:00,36.1,7.5,32.04,NW,320,5.0,6.0,30,0.00,NA,NA,-99.99,wxupload 3.4,2013-02-24 22:19:00,
2013-02-24 17:24:00,36.1,7.5,32.04,SE,144,2.0,6.0,30,0.00,NA,NA,-99.99,wxupload 3.4,2013-02-24 22:24:00,
2013-02-24 17:31:00,36.0,7.4,32.04,NE,39,0.0,5.0,30,0.00,NA,NA,-99.99,wxupload 3.4,2013-02-24 22:31:00,
2013-02-24 17:36:00,35.6,7.1,32.07,NNE,21,0.0,11.0,30,0.00,NA,NA,-99.99,wxupload 3.4,2013-02-24 22:36:00,
2013-02-24 17:42:00,35.6,7.1,32.07,NW,312,4.0,8.0,30,0.00,NA,NA,-99.99,wxupload 3.4,2013-02-24 22:42:00,
2013-02-24 17:49:00,35.4,7.6,32.04,NNW,340,4.0,6.0,31,0.00,NA,NA,-99.99,wxupload 3.4,2013-02-24 22:49:00,
2013-02-24 17:54:00,35.4,7.6,32.04,NNW,328,2.0,5.0,31,0.00,NA,NA,-99.99,wxupload 3.4,2013-02-24 22:54:00,
2013-02-24 18:01:00,35.2,7.5,32.04,NNW,345,0.0,4.0,31,0.00,NA,NA,-99.99,wxupload 3.4,2013-02-24 23:01:00,
2013-02-24 18:06:00,35.1,7.3,32.07,North,0,0.0,0.0,31,0.00,NA,NA,-99.99,wxupload 3.4,2013-02-24 23:06:00,
2013-02-24 18:12:00,34.9,7.1,32.07,North,0,4.0,5.0,31,0.00,NA,NA,-99.99,wxupload 3.4,2013-02-24 23:12:00,
2013-02-24 18:18:00,34.5,7.5,32.07,North,353,0.0,3.0,32,0.00,NA,NA,-99.99,wxupload 3.4,2013-02-24 23:18:00,
2013-02-24 18:24:00,34.3,8.1,32.07,North,6,4.0,4.0,33,0.00,NA,NA,-99.99,wxupload 3.4,2013-02-24 23:24:00,
2013-02-24 18:31:00,34.2,7.9,32.07,NNW,342,4.0,5.0,33,0.00,NA,NA,-99.99,wxupload 3.4,2013-02-24 23:31:00,
2013-02-24 18:36:00,34.0,7.7,32.10,NNW,341,0.0,3.0,33,0.00,NA,NA,-99.99,wxupload 3.4,2013-02-24 23:36:00,
2013-02-24 18:43:00,33.8,7.6,32.10,NE,38,2.0,3.0,33,0.00,NA,NA,-99.99,wxupload 3.4,2013-02-24 23:43:00,
2013-02-24 18:48:00,33.8,7.6,32.10,NW,321,0.0,4.0,33,0.00,NA,NA,-99.99,wxupload 3.4,2013-02-24 23:48:00,
2013-02-24 18:54:00,33.8,7.6,32.10,NW,314,2.0,3.0,33,0.00,NA,NA,-99.99,wxupload 3.4,2013-02-24 23:54:00,
2013-02-24 19:01:00,33.8,6.9,32.10,NNE,26,3.0,4.0,32,0.00,NA,NA,-99.99,wxupload 3.4,2013-02-25 00:01:00,
2013-02-24 19:06:00,33.8,7.6,32.10,NNW,338,0.0,3.0,33,0.00,NA,NA,-99.99,wxupload 3.4,2013-02-25 00:06:00,
2013-02-24 19:13:00,33.6,7.4,32.10,NW,317,0.0,5.0,33,0.00,NA,NA,-99.99,wxupload 3.4,2013-02-25 00:13:00,
2013-02-24 19:18:00,33.6,7.4,32.10,NNW,330,0.0,0.0,33,0.00,NA,NA,-99.99,wxupload 3.4,2013-02-25 00:18:00,
2013-02-24 19:24:00,33.6,7.4,32.10,North,0,3.0,5.0,33,0.00,NA,NA,-99.99,wxupload 3.4,2013-02-25 00:24:00,
2013-02-24 19:30:00,33.6,7.4,32.10,NNW,331,3.0,8.0,33,0.00,NA,NA,-99.99,wxupload 3.4,2013-02-25 00:30:00,
2013-02-24 19:36:00,33.6,7.4,32.13,North,0,0.0,0.0,33,0.00,NA,NA,-99.99,wxupload 3.4,2013-02-25 00:36:00,
2013-02-24 19:43:00,33.6,7.4,32.13,NNW,332,0.0,4.0,33,0.00,NA,NA,-99.99,wxupload 3.4,2013-02-25 00:43:00,
2013-02-24 19:48:00,33.4,6.6,32.13,WNW,297,0.0,3.0,32,0.00,NA,NA,-99.99,wxupload 3.4,2013-02-25 00:48:00,
2013-02-24 19:55:00,33.4,6.6,32.13,NW,317,0.0,4.0,32,0.00,NA,NA,-99.99,wxupload 3.4,2013-02-25 00:55:00,
2013-02-24 20:00:00,33.3,6.4,32.13,NE,51,0.0,9.0,32,0.00,NA,NA,-99.99,wxupload 3.4,2013-02-25 01:00:00,
2013-02-24 20:06:00,33.3,6.4,32.13,ENE,73,2.0,6.0,32,0.00,NA,NA,-99.99,wxupload 3.4,2013-02-25 01:06:00,
2013-02-24 20:13:00,33.3,6.4,32.13,NW,313,4.0,6.0,32,0.00,NA,NA,-99.99,wxupload 3.4,2013-02-25 01:13:00,
2013-02-24 20:18:00,32.9,5.4,32.13,ENE,66,4.0,9.0,31,0.00,NA,NA,-99.99,wxupload 3.4,2013-02-25 01:18:00,
2013-02-24 20:25:00,32.5,5.8,32.13,NW,318,3.0,6.0,32,0.00,NA,NA,-99.99,wxupload 3.4,2013-02-25 01:25:00,
2013-02-24 20:30:00,32.2,5.4,32.13,North,10,2.0,0.0,32,0.00,NA,NA,-99.99,wxupload 3.4,2013-02-25 01:30:00,
2013-02-24 20:36:00,32.0,5.3,32.13,NNE,16,0.0,5.0,32,0.00,NA,NA,-99.99,wxupload 3.4,2013-02-25 01:36:00,
2013-02-24 20:42:00,32.0,5.3,32.13,NNW,342,0.0,0.0,32,0.00,NA,NA,-99.99,wxupload 3.4,2013-02-25 01:42:00,
2013-02-24 20:48:00,32.2,4.7,32.16,North,0,0.0,0.0,31,0.00,NA,NA,-99.99,wxupload 3.4,2013-02-25 01:48:00,
2013-02-24 20:55:00,32.2,4.7,32.16,NW,314,0.0,0.0,31,0.00,NA,NA,-99.99,wxupload 3.4,2013-02-25 01:55:00,
2013-02-24 21:00:00,32.2,4.7,32.16,WNW,300,0.0,3.0,31,0.00,NA,NA,-99.99,wxupload 3.4,2013-02-25 02:00:00,
2013-02-24 21:07:00,32.2,4.7,32.13,NW,317,0.0,3.0,31,0.00,NA,NA,-99.99,wxupload 3.4,2013-02-25 02:07:00,
2013-02-24 21:12:00,32.2,4.7,32.13,NE,34,0.0,8.0,31,0.00,NA,NA,-99.99,wxupload 3.4,2013-02-25 02:12:00,
2013-02-24 21:18:00,32.4,4.9,32.13,NNW,333,0.0,0.0,31,0.00,NA,NA,-99.99,wxupload 3.4,2013-02-25 02:18:00,
2013-02-24 21:25:00,32.4,4.9,32.13,North,9,0.0,0.0,31,0.00,NA,NA,-99.99,wxupload 3.4,2013-02-25 02:25:00,
2013-02-24 21:30:00,32.4,4.9,32.13,NNE,22,0.0,0.0,31,0.00,NA,NA,-99.99,wxupload 3.4,2013-02-25 02:30:00,
2013-02-24 21:37:00,32.4,4.9,32.16,NNE,13,0.0,0.0,31,0.00,NA,NA,-99.99,wxupload 3.4,2013-02-25 02:37:00,
2013-02-24 21:42:00,32.4,4.9,32.16,NW,325,0.0,3.0,31,0.00,NA,NA,-99.99,wxupload 3.4,2013-02-25 02:42:00,
2013-02-24 21:48:00,32.2,4.7,32.16,North,350,3.0,4.0,31,0.00,NA,NA,-99.99,wxupload 3.4,2013-02-25 02:48:00,
2013-02-24 21:54:00,31.8,4.4,32.16,NW,323,0.0,5.0,31,0.00,NA,NA,-99.99,wxupload 3.4,2013-02-25 02:54:00,
2013-02-24 22:00:00,31.6,4.3,32.16,NNW,328,0.0,3.0,31,0.00,NA,NA,-99.99,wxupload 3.4,2013-02-25 03:00:00,
2013-02-24 22:07:00,31.6,4.3,32.16,North,7,0.0,0.0,31,0.00,NA,NA,-99.99,wxupload 3.4,2013-02-25 03:07:00,
2013-02-24 22:12:00,31.5,4.1,32.16,West,275,0.0,0.0,31,0.00,NA,NA,-99.99,wxupload 3.4,2013-02-25 03:12:00,
2013-02-24 22:19:00,31.5,4.1,32.16,NNE,19,0.0,0.0,31,0.00,NA,NA,-99.99,wxupload 3.4,2013-02-25 03:19:00,
2013-02-24 22:24:00,31.5,4.1,32.16,NNW,335,0.0,0.0,31,0.00,NA,NA,-99.99,wxupload 3.4,2013-02-25 03:24:00,
2013-02-24 22:30:00,31.5,4.1,32.16,NE,41,0.0,4.0,31,0.00,NA,NA,-99.99,wxupload 3.4,2013-02-25 03:30:00,
2013-02-24 22:37:00,31.6,4.3,32.16,North,0,0.0,0.0,31,0.00,NA,NA,-99.99,wxupload 3.4,2013-02-25 03:37:00,
2013-02-24 22:42:00,31.6,4.3,32.16,North,353,0.0,0.0,31,0.00,NA,NA,-99.99,wxupload 3.4,2013-02-25 03:42:00,
2013-02-24 22:49:00,31.5,4.1,32.16,NNE,28,0.0,0.0,31,0.00,NA,NA,-99.99,wxupload 3.4,2013-02-25 03:49:00,
2013-02-24 22:54:00,31.1,3.8,32.16,WNW,291,0.0,0.0,31,0.00,NA,NA,-99.99,wxupload 3.4,2013-02-25 03:54:00,
2013-02-24 23:01:00,30.4,3.1,32.16,NNW,343,0.0,0.0,31,0.00,NA,NA,-99.99,wxupload 3.4,2013-02-25 04:01:00,
2013-02-24 23:06:00,30.2,3.0,32.13,WNW,298,0.0,0.0,31,0.00,NA,NA,-99.99,wxupload 3.4,2013-02-25 04:06:00,
2013-02-24 23:12:00,29.8,3.4,32.13,WNW,299,0.0,0.0,32,0.00,NA,NA,-99.99,wxupload 3.4,2013-02-25 04:12:00,
2013-02-24 23:19:00,29.7,3.2,32.16,NNW,342,0.0,0.0,32,0.00,NA,NA,-99.99,wxupload 3.4,2013-02-25 04:19:00,
2013-02-24 23:24:00,29.5,3.0,32.16,NE,45,0.0,0.0,32,0.00,NA,NA,-99.99,wxupload 3.4,2013-02-25 04:24:00,
2013-02-24 23:31:00,29.7,3.2,32.16,NNE,32,0.0,0.0,32,0.00,NA,NA,-99.99,wxupload 3.4,2013-02-25 04:31:00,
2013-02-24 23:36:00,29.7,3.2,32.16,NNE,33,0.0,0.0,32,0.00,NA,NA,-99.99,wxupload 3.4,2013-02-25 04:36:00,
2013-02-24 23:43:00,29.5,3.0,32.16,ENE,59,0.0,0.0,32,0.00,NA,NA,-99.99,wxupload 3.4,2013-02-25 04:43:00,
2013-02-24 23:48:00,29.5,3.0,32.16,NE,43,0.0,0.0,32,0.00,NA,NA,-99.99,wxupload 3.4,2013-02-25 04:48:00,
2013-02-24 23:54:00,29.5,3.0,32.16,NE,43,0.0,0.0,32,0.00,NA,NA,-99.99,wxupload 3.4,2013-02-25 04:54:00,